User: anonymous
Location: Veyrier
(46.1830°N, 6.2000°E)
Time: 06:13:57
(UTC+02:00)
Language:

Iridium 98 - Orbit

View from above orbital plane
View from above orbital plane
View from above satellite
View from above satellite

Ground track
Ground track

The orbit data is extracted from the following two-line orbital elements,

1 27451U 02031B   14208.43808105  .00000309  00000-0  86422-4 0  4149
2 27451 086.4448 103.5895 0002752 086.2594 036.2005 14.42948229639960
Epoch (UTC): 27 July 2014 10:30:50
Eccentricity: 0.0002752
inclination: 86.4448°
perigee height: 747 km
apogee height: 751 km
right ascension of ascending node: 103.5895°
argument of perigee: 86.2594°
revolutions per day: 14.42948229
mean anomaly at epoch: 36.2005°
orbit number at epoch: 63996

The dashed part of the orbit path shows where the satellite is in the earth's shadow,  

DLR